Sandspit, British Columbia

4:56 PM PDT on August 30, 2016 (GMT -0700)
Sandspit

Weather History for CYZP - January, 2014

Change the Weather History Date:

Thursday, January 16, 2014

  Actual Average Record
Temperature  
Mean Temperature 46 °F -  
Max Temperature 48 °F 45 °F 50 °F (2013)
Min Temperature 44 °F 37 °F 14 °F (2012)
Degree Days  
Heating Degree Days 19    
Moisture  
Dew Point 43 °F    
Average Humidity 88    
Maximum Humidity 100    
Minimum Humidity 76    
Precipitation  
Precipitation 0.00 in 0.39 in - ()
Sea Level Pressure  
Sea Level Pressure 30.28 in    
Wind  
Wind Speed 8 mph ()    
Max Wind Speed 20 mph    
Max Gust Speed 25 mph    
Visibility 8.8 miles    
Events Rain    
Averages and records for this station are not official NWS values.
T = Trace of Precipitation, MM = Missing Value Source: Averaged Metar Reports

Daily Weather History Graph

Daily Weather History Graph

Search for Another Location

Airport or City:

Trip Planner

Search our weather history database for the weather conditions in past years. The results will help you decide how hot, cold, wet, or windy it might be!

Date:

Astronomy

Jan. 16, 2014 Rise Set
Actual Time 8:52 AM PST 5:01 PM PST
Civil Twilight 8:12 AM PST 5:42 PM PST
Nautical Twilight 7:28 AM PST 6:25 PM PST
Astronomical Twilight 6:47 AM PST 7:07 PM PST
Moon 6:15 PM PST (1/16) 8:37 AM PST (1/16)
Length of Visible Light 9h 29m
Length of Day
8h 08m
Full, 100% of the Moon is Illuminated
Jan 16
Full
Jan 23
Last Quarter
Jan 30
New
Feb 6
First Quarter
Feb 14
Full

Hourly Weather History & Observations

Time (PST) Temp. Windchill Dew Point Humidity Pressure Visibility Wind Dir Wind Speed Gust Speed Precip Events Conditions
12:00 AM 48.2 °F - 46.4 °F 93% 30.34 in 9.0 mi South 9.2 mph - N/A   Overcast
1:00 AM 47 °F - 46 °F 94% 30.32 in - South 4.6 mph - -  
1:00 AM 46.4 °F 42.4 °F 44.6 °F 93% 30.33 in 9.0 mi South 8.1 mph - N/A   Overcast
1:39 AM 46.4 °F 41.9 °F 44.6 °F 93% 30.33 in 6.0 mi SSE 9.2 mph - N/A Rain Light Rain
1:49 AM 44.6 °F 39.7 °F 44.6 °F 100% 30.32 in 6.0 mi SSE 9.2 mph - N/A   Overcast
2:00 AM 48.2 °F - 46.4 °F 93% 30.33 in 9.0 mi South 8.1 mph - N/A   Overcast
3:00 AM 46.4 °F 43.5 °F 44.6 °F 93% 30.32 in 9.0 mi SE 5.8 mph - N/A   Overcast
4:00 AM 47 °F - 44 °F 84% 30.31 in - South 4.6 mph - -  
4:00 AM 48.2 °F - 42.8 °F 82% 30.32 in 9.0 mi South 6.9 mph - N/A   Overcast
5:00 AM 48.2 °F - 42.8 °F 82% 30.32 in 9.0 mi South 9.2 mph - N/A   Overcast
6:00 AM 48.2 °F - 41.0 °F 76% 30.32 in 9.0 mi South 10.4 mph - N/A   Overcast
7:00 AM 46 °F - 42 °F 79% 30.30 in - South 4.6 mph - -  
7:00 AM 46.4 °F 41.9 °F 41.0 °F 81% 30.31 in 9.0 mi SSE 9.2 mph - N/A   Overcast
8:00 AM 44.6 °F 39.2 °F 41.0 °F 87% 30.30 in 9.0 mi South 10.4 mph - N/A   Overcast
9:00 AM 46.4 °F 39.0 °F 42.8 °F 87% 30.29 in 9.0 mi SSE 19.6 mph 25.3 mph N/A   Overcast
10:00 AM 46 °F - 43 °F 84% 30.28 in - South 5.8 mph - -  
10:00 AM 46.4 °F 42.4 °F 42.8 °F 87% 30.30 in 9.0 mi South 8.1 mph - N/A   Overcast
11:00 AM 46.4 °F 40.7 °F 42.8 °F 87% 30.30 in 9.0 mi SSE 12.7 mph - N/A   Overcast
12:00 PM 46.4 °F 42.9 °F 42.8 °F 87% 30.29 in 9.0 mi South 6.9 mph - N/A   Overcast
1:00 PM 47 °F - 42 °F 78% 30.27 in - South 4.6 mph - -  
1:00 PM 46.4 °F 42.4 °F 42.8 °F 87% 30.29 in 9.0 mi SSE 8.1 mph - N/A   Overcast
2:00 PM 46.4 °F 42.9 °F 42.8 °F 87% 30.28 in 9.0 mi SE 6.9 mph - N/A   Overcast
3:00 PM 46.4 °F 41.1 °F 41.0 °F 81% 30.27 in 9.0 mi SE 11.5 mph - N/A   Overcast
4:00 PM 45 °F - 42 °F 86% 30.26 in - SSE 11.5 mph - -  
4:00 PM 46.4 °F 39.5 °F 42.8 °F 87% 30.27 in 9.0 mi SSE 17.3 mph - N/A   Overcast
5:00 PM 44.6 °F 37.8 °F 42.8 °F 93% 30.28 in 9.0 mi SSE 15.0 mph - N/A   Overcast
6:00 PM 44.6 °F 38.4 °F 42.8 °F 93% 30.27 in 9.0 mi SSE 12.7 mph 19.6 mph N/A   Overcast
7:00 PM 45 °F - 42 °F 86% 30.25 in - SSE 4.6 mph - -  
7:00 PM 44.6 °F 40.7 °F 42.8 °F 93% 30.26 in 9.0 mi SSE 6.9 mph - N/A   Overcast
8:00 PM 44.6 °F 39.2 °F 42.8 °F 93% 30.24 in 9.0 mi SE 10.4 mph - N/A   Overcast
9:00 PM 44.6 °F 38.1 °F 42.8 °F 93% 30.25 in 9.0 mi SSE 13.8 mph - N/A   Overcast
10:00 PM 44 °F - 43 °F 95% 30.20 in - SE 11.5 mph - -  
10:00 PM 44.6 °F 37.4 °F 42.8 °F 93% 30.21 in 9.0 mi SE 16.1 mph - N/A   Overcast
10:20 PM 44.6 °F 37.8 °F 42.8 °F 93% 30.21 in 9.0 mi SE 15.0 mph - N/A   Overcast
10:50 PM 44.6 °F 37.4 °F 42.8 °F 93% 30.21 in 9.0 mi SE 16.1 mph - N/A   Overcast
11:00 PM 44.6 °F 37.4 °F 42.8 °F 93% 30.21 in 9.0 mi SE 16.1 mph - N/A   Overcast